User: anonymous   Login
Location: NJAA Observatory
(40.6819°N, 74.8979°W)
Time: 06:28:08
(UTC-04:00)
Language:

ATLAS CENTAUR R/B - Orbit

View from above orbital plane
View from above orbital plane
View from above satellite
View from above satellite

Ground track
Ground track

The orbit data is extracted from the following two-line orbital elements,

1 28385U 04034B   17099.82752985 0.00071500  00000-0  56865-3 0    08
2 28385  57.3972   8.7190 3651442  92.7779 308.6892  8.24559482    05
Epoch (UTC): 09 April 2017 19:51:38
Eccentricity: 0.3651442
inclination: 57.3972°
perigee height: 192 km
apogee height: 7750 km
right ascension of ascending node: 8.7190°
argument of perigee: 92.7779°
revolutions per day: 8.24559482
mean anomaly at epoch: 308.6892°
orbit number at epoch: 0

The dashed part of the orbit path shows where the satellite is in the earth's shadow,  

DLR